Terug naar catalogus

FENGYUN 1C DEB

ActiefSSO
NORAD 29774·DEBRIS·🇨🇳 China

Gelanceerd May 10, 1999 vanaf Taiyuan Satellite Launch Center

Loading…

Volgende Passages (komende 24 uur)

TLE

VersSource: Space-Track

Epoch: Sep 14, 2026, 14:52 UTC

1 29774U 99025BQ  26257.61994910  .00000222  00000-0  11782-3 0  9993
2 29774  99.1056 211.7710 0051217  55.1094 120.6311 14.22942936 19994

Volg FENGYUN 1C DEB in realtime met AllMySat

Download on the App Store